Preview of NWS' New Version of Forecast
This preview is not operational and should not be used for support decisions.
Latest weather observations around

Fairfield / Travis Air Force Base (KSUU)

Using English Units (Switch to International System of Units)
Date/ Time (PDT) Wind (mph) Vis. (mi) Weather Sky Cond. Temp (°F) Rel. Humidity Wind Chill (°F) Heat Index (°F) Pressure Precip. (in)
Air Dwpt 6 hour Altimeter (inHg) Sea level (inHg) 1 hr 3 hr 6 hr
Max Min
May 25 03:22 WSW 18 10 Cloudy BKN015 OVC023 54 50     88%     29.98 30      
May 25 03:07 WSW 15 10 Cloudy OVC014 54 50     88%     29.99 30.01      
May 25 03:03 WSW 16 10 Light Rain OVC014 54 50     88%     30 30.02      
May 25 02:58 WSW 15 10 Light Rain OVC015 54 50     86%     30 30.02 0    
May 25 02:56 WSW 16 10 Light Rain OVC015 55 50     82%     29.99 30.01      
May 25 02:55 WSW 17 10 Cloudy OVC015 55 50     82%     29.99 30.01      
May 25 02:54 WSW 17 10 Light Rain OVC015 54 50     88%     29.99 30.01      
May 25 02:39   10 Light Rain BKN013 BKN120 55 50     82%     30 30.02      
May 25 02:29   10 Light Rain FEW012 BKN120 55 50     82%     29.99 30.01      
May 25 02:28   10 Mostly Cloudy FEW012 BKN120 55 50     82%     29.99 30.01      
May 25 01:58   10 Mostly Cloudy BKN120 54 49     83%     29.98 30      
May 25 00:58 WSW 17 10 Mostly Cloudy FEW100 BKN130 54 49     83%     29.97 29.99      
May 24 23:58   10 Partly Cloudy SCT160 54 48     80%     29.98 30      
May 24 22:58   10 Mostly Clear FEW150 55 49     80%     29.98 30      
May 24 21:58   10 Clear CLR 55 49     79%     29.98 30      
May 24 20:58 W 21 10 Mostly Cloudy and Windy BKN070 BKN090 56 48     74%     29.99 30.01      
May 24 19:58   10 Mostly Cloudy BKN080 BKN095 57 47     70%     29.99 30.01      
May 24 18:58 WSW 25 10 Mostly Clear and Windy FEW075 60 49     66%     29.97 29.99      
May 24 17:58   10 Partly Cloudy FEW070 SCT170 61 49     64%     29.96 29.98 0    
May 24 16:58 SW 29 10 Clear and Breezy CLR 63 51     63%     29.95 29.97 0   0
May 24 15:58   10 Partly Cloudy SCT180 66 50     56%     29.96 29.98      
May 24 14:58 WSW 22 10 Mostly Cloudy and Windy SCT070 BKN200 67 51     56%     29.96 29.98      
May 24 13:58 WSW 25 10 Partly Cloudy and Windy FEW070 FEW100 FEW140 SCT170 SCT200 68 51     54%     29.98 30      
May 24 12:58 WSW 23 10 Clear and Windy CLR 67 51     56%     29.99 30.01      
May 24 11:58 WSW 21 10 Clear and Windy CLR 66 50     57%     30 30.02      
May 24 10:58 SW 18 10 Mostly Clear FEW170 64 50     61%     30 30.02      
May 24 09:58 SW 20 10 Clear and Windy CLR 62 50     64%     30.01 30.03      
May 24 08:58 WSW 14 10 Mostly Cloudy BKN090 59 49     69%     30 30.02      
May 24 07:58 WSW 13 10 Partly Cloudy SCT080 57 49     74%     29.98 30      
May 24 06:58 WSW 16 10 Clear CLR 55 49     80%     29.96 29.98      
May 24 05:58 SW 16 10 Mostly Cloudy BKN210 52 48     86%     29.95 29.97      
May 24 04:58 WSW 17 10 Clear CLR 54 48     82%     29.94 29.96      
May 24 03:58 WSW 18 10 Mostly Clear FEW220 54 48     82%     29.94 29.96      
May 24 02:58 WSW 18 10 Clear CLR 53 48     81%     29.94 29.96      
May 24 01:58 WSW 21 10 Clear and Windy CLR 53 48     82%     29.94 29.96      
May 24 00:58 WSW 22 10 Clear and Windy CLR 53 47     82%     29.96 29.98      
May 23 23:58 SW 18 10 Clear CLR 53 47     82%     29.95 29.97      
May 23 22:58 SW 20 10 Clear and Windy CLR 53 47     81%     29.95 29.97      
May 23 21:58 SW 24 10 Clear and Windy CLR 54 48     79%     29.93 29.95      
May 23 20:58 WSW 22 10 Clear and Windy CLR 56 48     76%     29.94 29.96      
May 23 19:58 WSW 21 10 Clear and Windy CLR 57 48     72%     29.92 29.94      
May 23 18:58 WSW 20 10 Clear and Windy CLR 60 49     67%     29.91 29.93      
May 23 17:58 WSW 25 10 Clear and Windy CLR 62 51     67%     29.9 29.92      
May 23 16:58 WSW 25 10 Clear and Windy CLR 64 51     62%     29.89 29.91      
May 23 15:58 WSW 25 10 Clear and Windy CLR 66 52     60%     29.88 29.9      
May 23 14:58 WSW 26 10 Clear and Breezy CLR 66 52     61%     29.89 29.91      
May 23 13:58 WSW 22 10 Clear and Windy CLR 66 52     59%     29.9 29.92      
May 23 12:58 WSW 24 10 Clear and Windy CLR 66 51     59%     29.9 29.92      
May 23 11:58 WSW 21 10 Mostly Clear and Windy FEW020 65 51     61%     29.91 29.93      
May 23 11:53 WSW 23 10 Partly Cloudy and Windy SCT020 64 52     64%     29.91 29.93      
May 23 11:43 WSW 23 10 Mostly Cloudy and Windy BKN020 64 52     64%     29.92 29.94      
May 23 11:23 SW 24 10 Mostly Cloudy and Windy BKN019 64 52     64%     29.91 29.93      
May 23 11:18 WSW 21 10 Partly Cloudy and Windy SCT021 64 52     64%     29.91 29.93      
May 23 10:58 WSW 20 10 Mostly Cloudy and Windy BKN020 63 51     64%     29.91 29.93      
May 23 10:28 WSW 20 10 Partly Cloudy and Windy SCT020 63 50     63%     29.9 29.92      
May 23 09:58 WSW 22 10 Mostly Cloudy and Windy BKN021 62 50     65%     29.9 29.92      
May 23 09:53 SW 22 10 Mostly Cloudy and Windy BKN021 63 50     63%     29.89 29.91      
May 23 09:28   10 Partly Cloudy SCT018 61 50     68%     29.89 29.91      
May 23 08:58 WSW 21 10 Cloudy and Windy OVC016 60 49     68%     29.89 29.91      
May 23 07:58 W 20 10 Cloudy and Windy OVC015 57 49     75%     29.88 29.9      
May 23 07:43 WSW 20 10 Mostly Cloudy and Windy BKN015 57 50     77%     29.87 29.89      
May 23 06:58   10 Cloudy OVC014 56 49     78%     29.86 29.88      
May 23 06:48 WSW 18 10 Cloudy OVC014 55 50     82%     29.86 29.88      
May 23 06:33   10 Mostly Cloudy BKN015 55 48     77%     29.85 29.87      
May 23 06:13 WSW 20 10 Partly Cloudy and Windy SCT012 55 48     77%     29.84 29.86      
May 23 06:03   10 Mostly Cloudy BKN012 55 50     82%     29.84 29.86      
May 23 05:58   10 Cloudy OVC011 55 49     82%     29.84 29.86      
May 23 05:28 WSW 21 10 Cloudy and Windy OVC010 55 50     82%     29.84 29.86      
May 23 04:58 WSW 20 10 Cloudy and Windy OVC011 55 50     82%     29.84 29.86      
May 23 04:28   10 Cloudy OVC013 55 50     82%     29.83 29.85      
May 23 04:03   10 Cloudy OVC011 55 50     82%     29.83 29.85      
May 23 03:58   10 Cloudy OVC012 55 50     82%     29.83 29.85      
May 23 03:28   10 Mostly Cloudy BKN012 BKN130 55 50     82%     29.82 29.84      
May 23 02:58   10 Cloudy OVC011 55 50     83%     29.81 29.83      
May 23 02:38   10 Mostly Cloudy BKN011 55 50     82%     29.81 29.83      
May 23 02:03   10 Mostly Cloudy SCT012 BKN140 55 50     82%     29.82 29.84      
May 23 01:58   10 Cloudy BKN011 OVC140 56 50     82%     29.81 29.83      
May 23 01:38   10 Cloudy BKN011 OVC140 55 50     82%     29.82 29.84      
May 23 00:58   10 Mostly Cloudy BKN012 55 50     82%     29.82 29.84      
May 22 23:58   10 Cloudy OVC012 56 50     81%     29.83 29.85      
May 22 22:58   10 Mostly Cloudy BKN012 56 50     82%     29.82 29.84 0   0
May 22 22:23   10 Mostly Cloudy BKN012 55 50     82%     29.82 29.84      
May 22 21:58   10 Partly Cloudy SCT013 56 51     81%     29.82 29.84 0    
May 22 21:31   10 Mostly Clear FEW013 57 50     77%     29.82 29.84      
May 22 20:58   10 Clear CLR 56 50     80%     29.8 29.82      
May 22 19:58   10 Clear CLR 58 51     77%     29.79 29.81      
May 22 18:58   10 Clear CLR 62 52     69%     29.78 29.8      
May 22 17:58   10 Clear CLR 66 53     63%     29.78 29.8      
May 22 16:58   10 Clear CLR 69 54     59%     29.77 29.79      
May 22 15:58   10 Clear CLR 71 54     55%   71 29.78 29.8      
May 22 14:58   10 Clear CLR 71 54     54%   71 29.79 29.81      
May 22 13:58 WSW 20 10 Clear and Windy CLR 70 53     55%   69 29.81 29.83      
May 22 12:58 W 17 10 Mostly Clear FEW200 70 53     55%     29.83 29.85      
May 22 11:58 WSW 20 10 Clear and Windy CLR 68 53     59%     29.85 29.87      
May 22 10:58 WSW 20 10 Clear and Windy CLR 64 51     63%     29.86 29.88      
May 22 09:58 WSW 18 10 Clear CLR 62 51     67%     29.86 29.88      
May 22 08:58 WSW 16 10 Mostly Clear FEW013 59 51     73%     29.86 29.88      
May 22 08:05 WSW 15 10 Partly Cloudy SCT013 57 50     77%     29.86 29.88      
May 22 07:58 WSW 17 10 Mostly Clear FEW014 56 50     79%     29.85 29.87      
May 22 07:08 WSW 15 10 Partly Cloudy SCT014 55 50     82%     29.84 29.86      
May 22 06:58 WSW 16 10 Mostly Cloudy BKN014 55 50     83%     29.84 29.86      
May 22 06:53 WSW 15 10 Mostly Cloudy BKN014 54 50     88%     29.84 29.86      
May 22 06:28   10 Cloudy OVC012 54 50     88%     29.82 29.84      
May 22 06:13 WSW 16 10 Mostly Cloudy BKN011 54 48     82%     29.82 29.84      
May 22 05:58 WSW 16 10 Mostly Clear FEW012 53 49     87%     29.81 29.83      
May 22 05:43   10 Partly Cloudy SCT012 54 50     88%     29.81 29.83      
May 22 05:28   10 Cloudy OVC011 54 50     88%     29.8 29.82      
May 22 04:58 SW 18 10 Cloudy OVC009 54 49     85%     29.8 29.82      
May 22 04:28   10 Cloudy OVC009 54 50     88%     29.79 29.81      
May 22 04:03   10 Cloudy OVC010 54 50     88%     29.79 29.81      
May 22 03:58   10 Cloudy OVC009 54 50     85%     29.79 29.81      
May 22 02:58 SW 22 10 Cloudy and Windy OVC009 54 49     85%     29.78 29.8      
May 22 02:28   10 Mostly Cloudy BKN008 54 50     88%     29.77 29.79      
May 22 01:58 WSW 21 10 Mostly Clear and Windy FEW009 54 49     86%     29.78 29.8      
May 22 01:56 WSW 21 10 Mostly Clear and Windy FEW009 54 50     88%     29.78 29.8      
May 22 00:58   10 Clear CLR 54 49     84%     29.77 29.79      
May 21 23:58   10 Clear CLR 55 49     82%     29.76 29.78      
May 21 22:58   10 Clear CLR 55 49     80%     29.79 29.81      
May 21 21:58   10 Clear CLR 57 49     76%     29.79 29.81      
May 21 18:58 SW 23 10 Clear and Windy CLR 67 52     58%     29.74 29.76      
May 21 17:58   10 Partly Cloudy SCT140 72 53     52%   71 29.73 29.75      
Notice The following observation data may not be complete
May 21 16:58   10 Clear CLR          %              
May 21 03:58 SW 14 10 Clear CLR 50 47     89%     29.81 29.83      
May 20 19:58   10 Clear CLR 60 48     65%     29.82 29.84      
May 20 16:58 WSW 23 10 Clear and Windy CLR 66 48     53%     29.83 29.85      
May 20 15:58 WSW 21 10 Clear and Windy CLR 70 50     49%     29.85 29.87      
May 20 09:58 WSW 17 10 Clear CLR 61 49     64%     29.93 29.95      
Notice The following observation data may not be complete
May 20 04:38   10 Partly Cloudy SCT009          %              
May 20 04:33   10 Mostly Cloudy BKN010 52 46     82%     29.87 29.89      
May 19 14:58 WSW 25 10 Clear and Windy CLR 72 51     48%   71 29.85 29.87      
May 19 13:58   10 Mostly Clear FEW200 71 51     49%   70 29.87 29.89      
May 19 12:58   10 Clear CLR 70 51     50%     29.88 29.9      
May 18 15:58   10 Clear CLR 75 57     53%   75 29.86 29.88      
May 18 12:58 WSW 18 10 Clear CLR 71 55     57%   71 29.91 29.93      
May 18 04:58 WSW 18 10 Clear CLR 53 49     88%     29.91 29.93      
May 18 03:58 SW 18 10 Clear   53 50     87%     29.91 29.93      
May 17 13:58 WSW 10 10 Clear CLR 76 53     45%   76 29.94 29.96      
May 17 03:58 SW 13 10 Clear CLR 51 48     90%     29.99 30.01      
May 17 00:58 SW 14 10 Clear CLR 52 49     87%     30.02 30.04      
Notice The following observation data may not be complete
May 15 08:58   10 Clear CLR          %              
May 15 02:58   10 Mostly Cloudy SCT013 BKN100 53 48     82%     29.93 29.95      
May 14 13:58 WSW 23 10 Clear and Windy CLR 67 52     58%     29.91 29.93      
May 14 10:58   10 Clear CLR 62 50     65%     29.95 29.97      
May 13 07:38   10 Partly Cloudy SCT016 55 48     77%     29.94 29.96      
May 12 12:58   9 Clear CLR 81 42     25%   80 29.8 29.82      
May 12 11:58 N 13 10 Clear CLR 79 41     26%   78          
May 12 07:58 N 21 10 Clear and Windy CLR 70 40     34%     29.81 29.83      
May 12 03:58 N 18 10 Clear CLR 65 40     40%     29.79 29.81      
May 12 02:58 N 16 10 Clear CLR 65 40     39%     29.79 29.81      
Jun 11 20:58 WSW 8 10 Clear   53 48     81%     29.93 29.95      
Jun 11 17:58 WNW 6 5 Rain OVC060 53 48     81%     29.95   0    
Jun 11 14:58 WSW 16 10 Clear CLR 71 41     34%   69 29.87 29.89      
Jun 10 19:58   10 Clear   63 45     52%     29.86 29.88      
Jun 10 17:58 WSW 21 8 Clear and Windy CLR 70 46     43%     29.85 29.87      
Jun 10 15:58 WSW 22 10 Clear and Windy CLR 73 45     37%   72 29.86 29.88      
Jun 10 13:32 W 16 10 Mostly Clear FEW055 73 45     36%   72 29.89 29.91      
Jun 10 12:03   10 Clear CLR 73 39     29%   72 29.91 29.93      
Jun 09 22:58 SW 11 10 Clear CLR 55 48     77%     29.92 29.94      
Notice The following observation data may not be complete
Jun 09 16:58   10 Clear CLR          %              
Jun 09 15:58 SW 16 10 Clear CLR 72 47     41%   71 29.89 29.91      
Jun 08 11:58 ESE 6 10 Cloudy BKN028 OVC033 65 52     62%     30.02 30.04 0    
Jun 08 11:17 Calm 10 Cloudy OVC028 61 52     72%     30.02 30.04      
Notice The following observation data may not be complete
Jun 08 11:06   9 Light Rain OVC028          %              
Jun 08 10:58 Calm 7 Light Drizzle OVC028 60 51     73%     30.01 30.03 0   0
Jun 07 12:58   10 Mostly Cloudy FEW080 SCT150 BKN180 BKN210 71 52     52%   70 29.84 29.86      
Notice The following observation data may not be complete
Jun 07 05:58   10 Clear CLR          %              
Jun 06 11:58 WSW 16 10 Clear CLR 75 52     44%   75 29.86 29.88      
Jun 06 10:58 SW 17 10 Clear CLR 71 52     50%   70 29.87 29.89      
Jun 06 01:58   10 Clear CLR 58 50     76%     29.82 29.84      
Jun 05 12:58 SSW 6 10 Clear CLR 84 51     32%   82 29.85 29.87